Appleton, WI

5:05 PM CST on December 05, 2019 (GMT -0600)
Outagamie County Regional

Weather History for KATW - October, 2019

Change the Weather History Date:

Sunday, October 6, 2019

  Actual Average Record
Temperature  
Mean Temperature 55 °F -  
Max Temperature 64 °F 60 °F 89 °F (1963)
Min Temperature 46 °F 42 °F 27 °F (1988)
Degree Days  
Heating Degree Days 10    
Growing Degree Days 5 (Base 50)    
Moisture  
Dew Point 40 °F    
Average Humidity 65    
Maximum Humidity 100    
Minimum Humidity 24    
Precipitation  
Precipitation 0.00 in - - ()
Sea Level Pressure  
Sea Level Pressure 29.91 in    
Wind  
Wind Speed 13 mph ()    
Max Wind Speed 21 mph    
Max Gust Speed 31 mph    
Visibility 10.0 miles    
Events      
Averages and records for this station are not official NWS values.
T = Trace of Precipitation, MM = Missing Value Source: Averaged Metar Reports

Daily Weather History Graph

Daily Weather History Graph

Search for Another Location

Airport or City:

Astronomy

Oct. 06, 2019 Rise Set
Actual Time 6:57 AM CDT 6:26 PM CDT
Civil Twilight 6:28 AM CDT 6:55 PM CDT
Nautical Twilight 5:55 AM CDT 7:28 PM CDT
Astronomical Twilight 5:21 AM CDT 8:02 PM CDT
Moon 3:21 PM CDT (10/6) No Moon Set
Length of Visible Light 12h 26m
Length of Day
11h 28m
First Quarter, 60% of the Moon is Illuminated
Oct 6
First Quarter
Oct 13
Full
Oct 21
Last Quarter
Oct 27
New
Nov 4
First Quarter

Hourly Weather History & Observations

Time (CDT) Temp. Windchill Dew Point Humidity Pressure Visibility Wind Dir Wind Speed Gust Speed Precip Events Conditions
12:15 AM 53.6 °F - 53.6 °F 100% 29.79 in 10.0 mi WSW 12.7 mph - N/A   Overcast
12:35 AM 53.6 °F - 50.0 °F 88% 29.79 in 10.0 mi WSW 16.1 mph 24.2 mph N/A   Overcast
12:55 AM 53.6 °F - 50.0 °F 88% 29.80 in 10.0 mi WSW 17.3 mph 21.9 mph N/A   Mostly Cloudy
1:15 AM 53.6 °F - 48.2 °F 82% 29.80 in 10.0 mi WSW 12.7 mph - N/A   Mostly Cloudy
1:35 AM 51.8 °F - 44.6 °F 76% 29.82 in 10.0 mi WSW 16.1 mph 20.7 mph N/A   Scattered Clouds
1:55 AM 51.8 °F - 42.8 °F 71% 29.82 in 10.0 mi WSW 18.4 mph 27.6 mph N/A   Mostly Cloudy
2:15 AM 51.8 °F - 41.0 °F 67% 29.83 in 10.0 mi WSW 17.3 mph 26.5 mph N/A   Mostly Cloudy
2:35 AM 50.0 °F - 41.0 °F 71% 29.83 in 10.0 mi WSW 16.1 mph 21.9 mph N/A   Mostly Cloudy
2:55 AM 50.0 °F - 41.0 °F 71% 29.82 in 10.0 mi WSW 16.1 mph 25.3 mph N/A   Overcast
3:15 AM 50.0 °F - 41.0 °F 71% 29.83 in 10.0 mi West 15.0 mph 21.9 mph N/A   Overcast
3:35 AM 50.0 °F - 41.0 °F 71% 29.84 in 10.0 mi West 16.1 mph 19.6 mph N/A   Mostly Cloudy
3:55 AM 48.2 °F - 41.0 °F 76% 29.84 in 10.0 mi West 13.8 mph - N/A   Scattered Clouds
4:15 AM 46.4 °F 41.5 °F 41.0 °F 81% 29.85 in 10.0 mi WSW 10.4 mph - N/A   Clear
4:35 AM 46.4 °F 41.5 °F 41.0 °F 81% 29.86 in 10.0 mi SW 10.4 mph - N/A   Clear
4:55 AM 46.4 °F 41.1 °F 41.0 °F 81% 29.87 in 10.0 mi WSW 11.5 mph - N/A   Clear
5:15 AM 46.4 °F 41.5 °F 41.0 °F 81% 29.87 in 10.0 mi WSW 10.4 mph - N/A   Clear
5:22 AM 46.4 °F 41.5 °F 42.8 °F 87% 29.87 in 10.0 mi WSW 10.4 mph - N/A   Mostly Cloudy
5:45 AM 46.4 °F 41.9 °F 42.8 °F 87% 29.87 in 10.0 mi WSW 9.2 mph - N/A   Mostly Cloudy
6:45 AM 46.4 °F 42.4 °F 44.6 °F 93% 29.90 in 10.0 mi SW 8.1 mph - N/A   Mostly Cloudy
7:45 AM 46.4 °F 41.9 °F 44.6 °F 93% 29.92 in 10.0 mi SW 9.2 mph - N/A   Scattered Clouds
8:45 AM 50.0 °F - 42.8 °F 76% 29.94 in 10.0 mi SW 13.8 mph - N/A   Scattered Clouds
9:45 AM 53.6 °F - 42.8 °F 67% 29.97 in 10.0 mi SW 17.3 mph 23.0 mph N/A   Scattered Clouds
10:45 AM 55.4 °F - 41.0 °F 58% 29.97 in 10.0 mi WSW 11.5 mph 20.7 mph N/A   Scattered Clouds
11:45 AM 60.8 °F - 39.2 °F 45% 29.97 in 10.0 mi SW 16.1 mph 27.6 mph N/A   Scattered Clouds
12:45 PM 62.6 °F - 37.4 °F 39% 29.97 in 10.0 mi SW 17.3 mph 28.8 mph N/A   Scattered Clouds
1:45 PM 62.6 °F - 35.6 °F 37% 29.95 in 10.0 mi SW 17.3 mph 25.3 mph N/A   Scattered Clouds
2:45 PM 64.4 °F - 28.4 °F 26% 29.95 in 10.0 mi WSW 20.7 mph 31.1 mph N/A   Scattered Clouds
3:45 PM 64.4 °F - 26.6 °F 24% 29.93 in 10.0 mi West 19.6 mph 28.8 mph N/A   Scattered Clouds
4:45 PM 62.6 °F - 28.4 °F 27% 29.94 in 10.0 mi West 15.0 mph 26.5 mph N/A   Mostly Cloudy
5:45 PM 62.6 °F - 30.2 °F 30% 29.95 in 10.0 mi WSW 11.5 mph - N/A   Scattered Clouds
6:45 PM 55.4 °F - 35.6 °F 47% 29.96 in 10.0 mi SW 8.1 mph - N/A   Scattered Clouds
7:45 PM 53.6 °F - 39.2 °F 58% 29.97 in 10.0 mi SW 8.1 mph - N/A   Scattered Clouds
8:45 PM 53.6 °F - 37.4 °F 54% 29.98 in 10.0 mi SW 11.5 mph - N/A   Scattered Clouds
9:45 PM 53.6 °F - 37.4 °F 54% 30.00 in 10.0 mi WSW 10.4 mph - N/A   Scattered Clouds
10:45 PM 51.8 °F - 37.4 °F 58% 30.01 in 10.0 mi SW 11.5 mph - N/A   Scattered Clouds
10:55 PM 51.8 °F - 37.4 °F 58% 30.01 in 10.0 mi WSW 12.7 mph - N/A   Clear
11:15 PM 51.8 °F - 37.4 °F 58% 30.01 in 10.0 mi WSW 11.5 mph - N/A   Clear
11:35 PM 51.8 °F - 37.4 °F 58% 30.01 in 10.0 mi WSW 9.2 mph - N/A   Clear
11:55 PM 50.0 °F - 37.4 °F 62% 30.01 in 10.0 mi WSW 10.4 mph - N/A   Clear